Sign In / Sign Up
 
 
Wind Of Changes Regatta. Leg 3. 13/04 - 19/04



Race Date (UTC) # I place II place III place Track
Race5290 2015-04-18 09:41:21 2 Zara anti-fascist ADELANTE37
Race5289 2015-04-18 09:39:01 8 FRA 88 Wali9 Rosen Kavalier
Race5288 2015-04-18 09:37:19 2 Apollo buche
Race5287 2015-04-18 09:35:33 8 Joe Turbina Ares Hokulea
Race5286 2015-04-18 09:33:23 3 BlueDragon 459 albert
Race5285 2015-04-18 09:32:07 8 ___/)... Why? Rosen Kavalier
Race5284 2015-04-18 09:30:34 6 Apollo hallrassy buche
Race5283 2015-04-18 09:29:16 8 Joe Turbina PurPur Hokulea
Race5282 2015-04-18 09:27:42 8 SATAN ***** TipTop
Race5281 2015-04-18 09:25:48 8 FRA 88 Why? Rosen Kavalier
Race5280 2015-04-18 09:24:23 5 Apollo jackstar96 hallrassy
Race5279 2015-04-18 09:23:10 8 Ares PurPur Hokulea
Race5278 2015-04-18 09:21:47 2 Rantaplan Duermevela
Race5277 2015-04-18 09:18:48 8 pixieiclaw Jap470 Why?
Race5276 2015-04-18 09:17:27 8 albert Apollo hallrassy
Race5275 2015-04-18 09:16:15 8 Rosen Kavalier quadrifoglioverde PurPur
Race5274 2015-04-18 09:15:21 8 Hokulea matanegros Ares
Race5273 2015-04-18 09:14:05 5 Scrubber Jap470 MATTIX
Race5272 2015-04-18 09:12:30 5 pixieiclaw Rodise 2 zvezdochka
Race5271 2015-04-18 09:10:41 7 Apollo aq2 *****
Race5270 2015-04-18 09:09:54 6 KnockOut Rus7 ITA-1961
Race5269 2015-04-18 09:07:28 8 Ares FRA 88 Hokulea
Race5268 2015-04-18 09:06:00 8 ___/)... zvezdochka pixieiclaw
Race5267 2015-04-18 09:05:10 2 Apollo Cindiale
Race5266 2015-04-18 09:03:21 8 tempete Ares *****
Race5265 2015-04-18 09:01:42 2 LAPS70 Stellina1965
Race5264 2015-04-18 09:00:27 4 aq2 k popac93
Race5263 2015-04-18 08:58:26 8 zvezdochka ___/)... Rodise 2
Race5262 2015-04-18 08:56:56 8 Ares CEKuPA Why?
Race5261 2015-04-18 08:56:10 2 USS ENTERPRISE Cindiale
Race5260 2015-04-18 08:54:48 8 TipTop LAPS70 PortRoyal CYVC
Race5259 2015-04-18 08:52:23 7 FRA 88 Hokulea ___/)...
Race5258 2015-04-18 08:50:23 8 Why? mocio CEKuPA
Race5257 2015-04-18 08:48:19 7 Fortuna III youppi03:50:40 TipTop
Race5256 2015-04-18 08:46:51 8 ___/)... ***** Hokulea
Race5255 2015-04-18 08:45:13 3 zvezdochka s'argos Cindiale
Race5254 2015-04-18 08:43:36 8 Why? shadow team ITA764
Race5253 2015-04-18 08:42:16 8 Fortuna III youppi03:50:40 ADELANTE37
Race5252 2015-04-18 08:39:59 8 laserperformance lievtstrunz Cb2
Race5251 2015-04-18 08:38:09 2 Cindiale s'argos
Race5250 2015-04-18 08:37:15 8 Hokulea Why? Dragon
Race5249 2015-04-18 08:35:01 8 ADELANTE37 LAPS70 youppi03:50:40
Race5248 2015-04-18 08:33:30 8 ELIOTLUCAS 1 laserperformance lievtstrunz
Race5247 2015-04-18 08:31:39 7 Dragon Fortuna III CEKuPA
Race5246 2015-04-18 08:30:30 8 bassotto Hokulea TipTop
Race5245 2015-04-18 08:27:48 8 GypsyBaron Why? shadow team
Race5244 2015-04-18 08:26:28 3 Elan A Bord D-cap TUR-192000
Race5243 2015-04-18 08:24:22 8 mistermagoo Dragon laserperformance
Race5242 2015-04-18 08:23:04 8 ELIOTLUCAS 1 kutya Fortuna III
Race5241 2015-04-18 08:21:34 4 Wind Why? TUR-192000
Race5240 2015-04-18 08:18:57 4 Elan A Bord Farrspach DEX39
Race5239 2015-04-18 08:16:54 8 mistermagoo Team IDE BlueDragon
Race5238 2015-04-18 08:14:15 8 Dragon Why? fringuello mannaro
Race5237 2015-04-18 08:12:48 4 salvamosca SR Fortuna III Elan A Bord
Race5236 2015-04-18 08:11:54 2 aq2 kokken
Race5235 2015-04-18 08:10:36 2 salvamosca SR emanuele
Race5234 2015-04-18 08:07:38 8 Rosen Kavalier Dragon .leise
Race5233 2015-04-18 08:04:38 8 GRIMALDI kyma ELIOTLUCAS 1
Race5232 2015-04-18 08:02:52 8 BiKo aq2 novelco
Race5231 2015-04-18 08:01:15 8 zomberg ___/)... Dragon
Race5230 2015-04-18 07:59:23 3 bathsheba kyma emanuele
Race5229 2015-04-18 07:58:18 3 salvamosca SR Knockout bathsheba
Race5228 2015-04-18 07:57:22 8 ELIOTLUCAS 1 BiKo aq2
Race5227 2015-04-18 07:55:30 8 Mayumbando JAN Fortuna III
Race5226 2015-04-18 07:52:34 8 Minor .leise ___/)...
Race5225 2015-04-18 07:50:46 3 kutya BiKo laser 156457
Race5224 2015-04-18 07:47:37 8 JAN sodium Kala Nag 2🇫🇷
Race5223 2015-04-18 07:46:01 8 ELIOTLUCAS 1 Nonmirompeteicoglioni .leise
Race5222 2015-04-18 07:43:20 8 laser 156457 kutya poppopop
Race5221 2015-04-18 07:40:11 8 Ocita havuc JAN
Race5220 2015-04-18 07:38:47 5 kutya kokken poppopop
Race5219 2015-04-18 07:37:08 6 Bingo ELIOTLUCAS 1 Emca
Race5218 2015-04-18 07:35:33 7 Kill Bill Ocita havuc
Race5217 2015-04-18 07:33:15 8 Newcastle 101 mistermagoo Nik
Race5216 2015-04-18 07:32:20 8 borch Apollo Team IDE
Race5215 2015-04-18 07:31:00 8 pesek mowgli Get Lucky
Race5214 2015-04-18 07:29:08 8 Telbuoy ELIOTLUCAS 1 sting
Race5213 2015-04-18 07:27:11 8 JAN widodo uyee mistermagoo
Race5212 2015-04-18 07:26:02 8 Nik Apollo audace
Race5211 2015-04-18 07:24:15 6 federico Fortuna III mowgli
Race5210 2015-04-18 07:22:18 3 .leise poppopop Deep Blue
Race5209 2015-04-18 07:20:58 3 Wind calim 3 Figaro
Race5208 2015-04-18 07:19:51 8 Nik audace Apollo
Race5207 2015-04-18 07:18:09 8 Fortuna III ELIOTLUCAS 1 Offer Isr
Race5206 2015-04-18 07:16:10 4 nemo Deep Blue .leise
Race5205 2015-04-18 07:15:07 3 poppopop Figaro Nik
Race5204 2015-04-18 07:13:47 4 Apollo chrak kutya
Race5203 2015-04-18 07:13:05 8 Fortuna III JAN calim 3
Race5202 2015-04-18 07:10:47 7 aviso TipTop Kill Bill
Race5201 2015-04-18 07:07:10 3 poppopop .leise crash bash
Race5200 2015-04-18 07:06:16 8 Kill Bill widodo uyee JAN
Race5199 2015-04-18 07:05:17 8 Il_Ser TipTop kutya
Race5198 2015-04-18 07:02:42 5 Wind ITA7935 .leise
Race5197 2015-04-18 07:01:22 5 frida k rosco poppopop
Race5196 2015-04-18 07:00:13 3 Il_Ser augusto.poropat Gwaihir
Race5195 2015-04-18 06:58:38 8 Fortuna III yin_YANG R A T U
Race5194 2015-04-18 06:57:30 4 PONTEDEUME LAPS70 Amon
Race5193 2015-04-18 06:55:26 8 MAX Wind pesek
Race5192 2015-04-18 06:54:30 8 OCS RS rosco frida k
Race5191 2015-04-18 06:53:41 3 Offer Isr doppiaw Gwaihir